STARLINK-32652, 62234

Orbit data source: Space-Track

STARLINK-32652, 62234 is a payload satellite owned by SpaceX/Seattle (US) in LEO that was launched on Thu, 05 Dec 2024 UTC via an FALCON 9 launch vehicle from the Air Force Western Test Range (AFWTR). Payloads include a variety of satellites, spacecraft, and rockets equipped with specific instruments for various scientific and technological missions. These include communications satellites like Starlink; space stations such as the ISS; scientific satellites like the Hubble; Earth observation satellites from companies like Planet Labs, Umbra, and HawkEye 360; GPS; miniature CubeSats for education and research; and military/defense satellites.

Loading next visibility...
STARLINK-32652 details
Identifier
62234, 2024-231S
Orbit
LEO
Last TLE update15 hours ago
Origin
Flag of USSpaceX/Seattle (US)
ManufacturerSpaceX/Seattle
MissionOperational spacecraft
Bus & MotorSTARLINK V2M, Unknown motor
Mass730 kg wet, ~700 kg dry
Launch date (UTC)
2024-12-05 (2 months ago)
Launch vehicle
FALCON 9
Launch site
Air Force Western Test Range (AFWTR)
Object type
Payload
Rocket body
Debris
Shape & HBRUnknown
Radar Cross SectionLarge (>1 m²)

Expand to show TLE details & history

TLE from 15 hours ago
0 STARLINK-32652
1 62234U 24231S   25025.22130418  .00000686  00000-0  27148-4 0  9990
2 62234  53.1610 321.6414 0000754  40.6009 319.5052 15.39583772  9151
Epoch: 2025-01-25T05:18Z
Definitive object data (Epoch: 2025-01-25T05:18:40.681Z)
Latitude-0°
Longitude117.19866°
Altitude447.851 km
Speed7.645 km/s
True Right ascension21h 26m 33s
True Declination0° 00' 00"
Sunlit
Object was in daylight at TLE epoch
Visualization TLE readout
Latitude-24.14908°
Longitude94.65211°
Altitude454.155 km
Speed7.64 km/s
Apparent Right ascension16h 30m 59s
Apparent Declination-63° 45' 14"
Sunlit
Object is in daylight
Visualization observer readout
Local Sidereal Time22:06:41
Azimuth211.487° SW
Elevation-32.656°
Doppler factor1
Orbital elements
Apogee altitude448.111 km
Perigee altitude447.082 km
Semi-major axis6,825.734 km
Eccentricity0.0000754
Inclination53.161°
RAAN321.6414°
Arg. of periapsis40.6009°
True anomaly319.49959°
Mean anomaly319.5052°
Eccentric anomaly319.50239°
Mean motion3.84875 °/min
BSTAR0.000027148
Orbital period93.54 mins
Loading maneuver chart data...
Loading historical data...
Loading historical data...
Loading historical data...
Loading historical data...
Loading historical data...
Loading historical data...
Loading historical data...

STARLINK-32652 Visibility forecast

Observer location: undefined°, undefined

Span
Click to sort rows by Start time (UTC) header in descending order
Start Az.
Max El. time (UTC)
Max El. Az.
Max El.
End time (UTC)
End Az.
5 mins2025-01-25 22:39:31.634Z246.498° WSW2025-01-25 22:41:31.634Z345.216° N41.635°2025-01-25 22:44:31.634Z44.266° NE
5 mins2025-01-26 05:11:31.634Z307.988° NW2025-01-26 05:13:31.634Z293.392° NW43.186°2025-01-26 05:16:31.634Z133.913° SE
|